Погода в Городовиковске

Погода в Городовиковске : погода сейчас, прогноз погоды и архив. Всё, что Вы хотите узнать о погоде в Городовиковске!

Хотите узнать прогноз погоды в Городовиковске? Тогда Вам сюда: Погода в Городовиковске

Поиск расширенной информации на нашем сайте:

Другие новости

Новости СМИ2

Главная страница сайта

Новости сайта

02.10.2013

Напоминаем, что на нашем новом сайте вы можете получить высокодетализированные прогнозы погоды по пунктам России, СНГ и мира (включающие важные для авиации метеовеличины, такие как направление и скорость ветра, видимость, явления погоды, количество и форма облачности, нижняя и верхняя граница облачности), а также ознакомиться с разнообразными материалами по авиационной метеорологии и подборкой полезных ссылок на эту тему.

Сайт Метеоцентр.Азия посвящён разработке технологий оптимизации авиаметеорологического обслуживания, включая проектирование и перспективное создание нескольких автоматизированных авиаметеорологических систем:
- система выпуска высокодетальных прогностических карт явлений погоды для нижнего воздушного пространства по России и ближнему зарубежью;
- система верификации прогнозов TAF (выпускаемых синоптиками официальных АМСГ РФ и ближнего зарубежья) и AUTOTAF (выпускаемых сайтом Метеоцентр.Азия) - выявление ошибок, онлайн-сопоставление с фактической погодой METAR, автоматическое внесение коррективов в прогнозы при резком отклонении фактической погоды от прогноза, подсчёт оправдываемости прогнозов по элементам и в целом;
- система обработки, анализа и отображения авиаметеорологической информации для применения провайдерами метеорологической информации.

Рекомендуем: Тротуарная плитка купить цена. Виды садовых дорожек и тротуарных nanoplit-spb.ru.

Погода в Городовиковске - сегодня

Время (UTC), дата Ветер
(°,м/с) 
Видим.   Явления Облачность Т
(°С)
Тd
(°С)
f(%) Тe
(°С)
Pmin
(гПа)
dP
(гПа)
Po
(мм)
O2
(г/м3)
Тmin Tmax R s Состояние
почвы
09 26.04.17 110 (В) 20000 м    3/0 средняя 
[Ac trans]
+14.4 +1.1 40 +15  1030.7  -0.7  765  293           
12 26.04.17 130 (ЮВ) 20000 м    ясно 
+17.2 +0.5 32 +17  1028.7  -1.9  764  289           
15 26.04.17 120 (ЮВ) 20000 м    ясно 
+16.6 +0.6 34 +17  1027.6  -1.1  763  290    +17.6       
18 26.04.17 120 (ЮВ) 20000 м    ясно 
+11.5 +1.5 50 +11  1028  0.2  763  295           
21 26.04.17 120 (ЮВ) 20000 м    ясно 
+8.7 +0.5 56 +8  1027.8  -0.3  763  298           
00 27.04.17 110 (В) 20000 м    ясно 
+5.6 -0 67 +5  1027.1  -0.8  762  301           
03 27.04.17 110 (В) 20000 м    ясно 
+4.3 -0.2 73 +3  1026.7  -0.4  762  302  +4    0.0    сухая 
06 27.04.17 120 (ЮВ) 5-10{12}  20000 м    ясно 
+10.2 +2.7 60 +9  1027.2  0.6  762  296           
09 27.04.17 120 (ЮВ) 6-13{13}  20000 м    ясно 
+17 +1.9 36 +17  1025.9  -1  762  289           
12 27.04.17 130 (ЮВ) 6{14}  20000 м    ясно 
+20.2 +1 28 +20  1024.3  -1.4  761  285           
15 27.04.17 110 (В) 4{12}  20000 м    ясно 
+19.6 -0.6 26 +20  1023.3  -1.1  760  286    +20.8       
18 27.04.17 110 (В) 20000 м    ясно 
+13.9 +3.9 51 +14  1023  -0.5  759  291           
21 27.04.17 110 (В) 20000 м    ясно 
+9.9 +3.7 65 +9  1023.8  0.6  760  295           
00 28.04.17 090 (В) 20000 м    ясно 
+6.1 +3.1 81 +5  1022.9  -0.9  759  299           
03 28.04.17 090 (В) 20000 м    ясно 
+5.4 +3.1 85 +5  1022  -1  758  299  +5    0.0    сухая 
06 28.04.17 120 (ЮВ) 20000 м    ясно 
+12.4 +5.3 62 +12  1020.6  -1.1  758  291           
09 28.04.17 160 (Ю) 20000 м    ясно 
+17.2 +6 48 +18  1019.5  -0.9  757  286           
12 28.04.17 160 (Ю) 20000 м    ясно 
+21.6 +5.1 34 +22  1018.4  -1  756  282           
15 28.04.17 130 (ЮВ) 20000 м    ясно 
+21.7 +4.4 32 +22  1017.7  -0.7  756  281    +22.1       
18 28.04.17 тихо ()   20000 м    ясно 
+11.3 +7.1 75 +11  1018.2  0.2  756  291           
21 28.04.17 100 (В) 20000 м    ясно 
+11.6 +6.5 71 +12  1018.3  0.1  756  291           
00 29.04.17 130 (ЮВ) 20000 м    ясно 
+8.4 +6.1 85 +9  1018.1  -0.3  756  294           
03 29.04.17 090 (В) 4000 м  дымка  ясно 
+6.1 +5.2 94 +6  1018.6  0.4  756  297  +4.8    0.0    сухая 
06 29.04.17 090 (В) 20000 м    1/0 верхняя 
[Ci fib]
+17.9 +8.3 53 +19  1018.6  0.4  756  285           
09 29.04.17 130 (ЮВ) 20000 м    1/0 средняя 
[Ac As]
+22.2 +6.7 37 +22  1017.9  -0.5  756  281           
Время (UTC), дата Ветер
(°,м/с) 
Видим.   Явления Облачность Т
(°С)
Тd
(°С)
f(%) Тe
(°С)
Pmin
(гПа)
dP
(гПа)
Po
(мм)
O2
(г/м3)
Тmin Tmax R s Состояние
почвы

Для получения пояснительной информации подведите курсор к названию столбца.

ПОГОДА в Городовиковске - архив

Всё, что Вы хотите узнать о погоде в Городовиковске - удобно и подробно!

Выберите нужную дату (начиная с 1 января 2015* года) и нажмите кнопку "Найти".
Будут отображены архивные сводки погоды по пункту Городовиковск, начиная с указанной даты.


Отображать данные в формате CSV (для использования в таблицах Excel)


Внимание! Наш архив погоды предназначен исключительно для личного некоммерческого использования в познавательных целях. Если Вам необходимы официальные справки о состоянии погоды (для производственных, юридических, коммерческих и т.п. целей), обращайтесь в органы Росгидромета.

*Примечание: данная дата относится к архиву по метеостанциям СССР (Россия, СНГ, Балтия).
Архив по метеостанциям Зарубежной Европы и Азии (кроме Китая) хранится 10 дней, по другим регионам земного шара (Китай, Африка, Америка, Австралия, Океания) - 1 день.

Городовиковск - район местоположения метеостанции


Название, широта, долгота, высота метеостанции:
Городовиковск 46.1°ш. 41.1°д. 86 м над ур. моря [Российская Федерация]

Дополнительная информация

В oтличие oт бoльшинства пoгoдных сайтoв мы публикуем пoдрoбную метеoинфoрмацию в детальнoм прoфессиoнальнoм фoрмате.

Характеристики температуры и влажнoсти вoздуха измеряются на высoте 2 м в тени вдали oт зданий и деревьев.
Скoрoсть ветра измеряется на высoте 10 м (на урoвне рoста челoвека скoрoсть ветра ниже в 1.5-2 раза). Если метеoстанция нахoдится в гoрoде или в лесу, тo скoрoсть ветра занижена на 2-4 м/с пo сравнению с oткрытым местoм. Скoрoсть ветра над акватoриями крупных рек и oзёр, а также на вершинах хoлмoв на 2-5 м/с выше, чем в oбычных услoвиях.
Атмoсфернoе давление в разных тoчках местнoсти мoжет значительнo oтличаться oт давления на метеoстанции, в зависимoсти oт услoвий рельефа (при пoдъёме на 10 м давление пoнижается примернo на 1 мм рт.ст.).